Find Starlink 11305

NORAD ID: 61247 Int'l Des: 2024-175 Owner: SPXS Country: US Constellation: starlink operational
又名: STARLINK-11305 [DTC] celestrak
LEOCIRCULAR

当前视图

正在加载3D地球...

About Starlink 11305

Starlink 11305 (NORAD 61247) is a starlink constellation satellite (v2 mini d2c) launched Sep 25, 2024 by SPXS of US. It operates in LEO, CIRCULAR orbit with a mass of 960.00 kg.

即将过境

Passes for default location (London). Set your location on the main map for personalized predictions.

高度历史

Loading altitude history...

两行轨道根数

1 61247U 24175E 26263.48225922 -.00000727 00000-0 -11471-5 0 9999
2 61247 53.1608 175.8046 0000612 97.6639 262.4448 15.69704495113965
Epoch: Sep 20, 2026 • Age: 21 hours

当前状态

高度 364.3 km
远地点 / 近地点 N/A
速度 7.69 km/s
星下点 -16.11°S, 25.53°E
发射日期 Sep 25, 2024
运行时间 1.9 years
类型 internet

技术详情

分类 Payload
质量 960.00 kg
干质量 910.00 kg
长度 0.30 m
跨度 29.00 m
形状 ? Box + pan
制造商 SPXS
平台类型 Starlink V2MD
阶段状态 In Orbit
所有者/国家 SPXS/US

Most Searched